NRMO2: Lake Thunderbird

Data processed at Fri Jan 11 2019 23:32


All information presented herein is the property of the government of the United States of America and may be revised or deleted at any time without prior notice.
Dissemination of this information without the expressed written consent of the Public Affairs Office, Tulsa District U.S. Army Corps of Engineers is strictly prohibited.
These data are gathered electronically and, as presented, have not undergone any form of quality control. These data are not guaranteed to be valid or correct.
Go to home page.
Go to station list.
Go to home page.

Upstream stations:

Downstream station:
Previous Day
Next Day
Current Day
    
SHEF ID:       NRMO2     Lake Thunderbird
STATION TYPE:  RESERVOIR

               PRECIP ELEVATION   STORAGE    INFLOW   RELEASE  WIND-DIRWIND-SPEED   VOLTAGE  BAT-LOAD
                   in        ft     ac-ft       cfs       cfs       deg       mph      volt      volt
              Ccp-Rev   Ccp-Rev   Ccp-Rev  Regi-Rev  Regi-Rev   Ccp-Rev   Ccp-Rev   Ccp-Rev   Ccp-Rev
(US/Central)
01/11 00:00      0.00   1041.15    118212       396       541      ----      ----     13.44     13.37
01/11 01:00      0.00   1041.15    118212       299       541      ----      ----     13.44     13.37
01/11 02:00      0.00   1041.15    118212       239       541      ----      ----     13.44     13.37
01/11 03:00      0.00   1041.14    118152       250       541      ----      ----     13.44     13.37
01/11 04:00      0.00   1041.14    118152       250       541      ----      ----     13.44     13.37
01/11 05:00      0.00   1041.13    118092       250       541      ----      ----     13.44     13.37
01/11 06:00      0.00   1041.13    118092       347       541      ----      ----     13.44     13.37
01/11 07:00      0.00   1041.13    118092       427       541      ----      ----     13.44     13.37
01/11 08:00      0.01   1041.13    118092       470       541      ----      ----     13.44     13.37
01/11 09:00      0.02   1041.13    118092       561       455      ----      ----     13.44     13.37
01/11 10:00      0.03   1041.13    118092       502       271      ----      ----     13.44     13.37
01/11 11:00      0.08   1041.14    118152       539       271      ----      ----     13.44     13.37
01/11 12:00      0.02   1041.14    118152       448       244      ----      ----     13.44     13.37
01/11 13:00      0.00   1041.15    118212       539         0      ----      ----     13.44     13.37
01/11 14:00      0.01   1041.15    118212       485         0      ----      ----     13.44     13.37
01/11 15:00      0.06   1041.16    118272       582         0      ----      ----     13.44     13.37
01/11 16:00      0.05   1041.17    118332       582         0      ----      ----     13.44     13.37
01/11 17:00      0.05   1041.18    118393       727         0      ----      ----     13.44     13.37
01/11 18:00      0.02   1041.19    118453       582         0      ----      ----     13.44     13.37
01/11 19:00      0.03   1041.20    118513       582         0      ----      ----     13.44     13.37
01/11 20:00      0.03   1041.20    118513       728         0      ----      ----     13.44     13.37
01/11 21:00      0.02   1041.21    118573       728         0      ----      ----     13.44     13.37
01/11 22:00      0.01   1041.23    118693      1019         0      ----      ----     13.44     13.37
01/11 23:00      ----      ----      ----      -901      -901      ----      ----      ----      ----